[[{"header":{"parameterUnit":"m.s-1","parameterCategory":1,"la1":30.2991,"la2":30.254,"lo1":-89.0895,"lo2":-89.0444,"dy":0.0017,"dx":0.0017,"nx":28,"ny":28,"refTime":"2023-10-31T03:00:00:Z","depth":0,"parameterNumber":2,"parameterNumberName":"U-component_of_WINDS"},"data":[0,0,0,0,0,0,0,0,0,0,0,0,0,0,0,0,0,0,0,0,0,0,0,0,0,0,0,0,0,0,0,0,0,0,0,0,0,0,0,0,0,0,0,0,0,0,0,0,0,0,0,0,0,0,0,0,0,0,0.5388,0.5388,0,0.535,0.535,0.5349,0.5343,0.5343,0.5343,0.5344,0.5303,0.5301,0.53,0,0,0,0,0,0,0,0,0,0,0,0,0,0.5455,0.5453,0.5388,0.5388,0.5387,0.535,0.535,0.5349,0.5343,0.5343,0.5343,0.5344,0.5303,0.5302,0.53,0,0,0,0,0,0,0,0,0,0,0,0,0,0.5422,0.5453,0.5388,0.538,0.5379,0.535,0.535,0.5349,0.5342,0.5343,0.5343,0.5344,0.5304,0.5302,0.53,0.5277,0,0,0.5293,0.5292,0,0,0,0,0,0,0,0,0.5424,0.542,0.5381,0.538,0.5379,0.5352,0.5358,0.5325,0.5342,0.5356,0.5344,0.5344,0.5319,0.5315,0.5307,0.5275,0.5273,0.5293,0.5292,0.5291,0.529,0,0,0,0,0,0,0,0.5426,0.5421,0.5373,0.5381,0.5379,0.5377,0.5373,0.5352,0.5335,0.5355,0.5354,0.535,0.5318,0.5309,0.5306,0.5273,0.5293,0.5291,0.529,0.5289,0.5221,0.5221,0,0,0,0,0,0,0.543,0.5423,0.5374,0.5372,0.5403,0.5376,0.5371,0.536,0.5335,0.5332,0.535,0.535,0.5312,0.5308,0.5304,0.5277,0.5291,0.5289,0.5288,0.5222,0.5221,0.5221,0,0,0,0,0,0,0.5432,0.5426,0.5376,0.5397,0.5391,0.5374,0.5362,0.5359,0.535,0.5331,0.5328,0.5344,0.5313,0.5307,0.5284,0.5275,0.5288,0.5286,0.5223,0.5222,0.5221,0.5221,0,0,0,0,0,0,0.5434,0.5427,0.5418,0.5397,0.539,0.5356,0.5361,0.5358,0.5347,0.5347,0.5325,0.5322,0.5313,0.5287,0.5282,0.5272,0.5285,0.5223,0.5222,0.5221,0.5221,0.522,0.5219,0,0,0,0,0,0.5436,0.5419,0.5417,0.5412,0.5379,0.5356,0.5352,0.5342,0.5346,0.5337,0.5325,0.5322,0.5277,0.5285,0.5279,0.5269,0.5224,0.5223,0.5221,0.5222,0.522,0.5219,0,0,0,0,0,0,0.5437,0.5416,0.5414,0.539,0.5375,0.5355,0.5343,0.534,0.5323,0.5324,0.5312,0.5308,0.5285,0.5275,0.5284,0.5246,0.5251,0.5248,0.5253,0.5251,0.525,0.5253,0.5283,0,0,0,0,0,0.5435,0.5419,0.5401,0.5381,0.5374,0.536,0.535,0.5344,0.5327,0.5321,0.5307,0.5291,0.5274,0.5262,0.5245,0.522,0.5216,0.521,0.5209,0.5208,0.5206,0.5192,0.519,0.5217,0.5217,0.5217,0,0,0.5429,0.5416,0.5406,0.5381,0.5369,0.5352,0.5354,0.5336,0.5324,0.5318,0.5295,0.5285,0.5267,0.5243,0.5232,0.5233,0.5198,0.5206,0.5206,0.5204,0.5191,0.5188,0.5186,0.5216,0.5216,0.5216,0,0,0.5411,0.5399,0.5381,0.537,0.5352,0.5343,0.5339,0.5319,0.5313,0.529,0.5286,0.5271,0.524,0.5227,0.5217,0.5196,0.5192,0.519,0.5183,0.517,0.5168,0.5166,0.5158,0.5155,0.5188,0.5188,0.5188,0,0.5406,0.5381,0.5372,0.5355,0.5344,0.534,0.5322,0.531,0.5287,0.528,0.5283,0.5245,0.5232,0.5206,0.5201,0.5193,0.5187,0.5192,0.5169,0.5167,0.5165,0.5157,0.5154,0.5188,0.5188,0.5188,0.5188,0,0.5376,0.5359,0.5347,0.5325,0.5313,0.5296,0.5285,0.5273,0.5269,0.526,0.5238,0.5222,0.5202,0.5196,0.5191,0.5169,0.517,0.5171,0.5176,0.5162,0.5155,0.5152,0.5188,0.5188,0.5188,0.5188,0,0,0.5355,0.5331,0.5327,0.5317,0.5298,0.5284,0.5267,0.5248,0.5239,0.5223,0.5208,0.5184,0.5185,0.5173,0.5167,0.5156,0.514,0.5158,0.5157,0.5155,0.5115,0.5113,0.511,0.5138,0.5138,0.5137,0.5116,0,0.5334,0.5303,0.5295,0.5269,0.5253,0.5249,0.5234,0.522,0.5212,0.5197,0.5188,0.517,0.5173,0.5166,0.5155,0.5144,0.5131,0.5146,0.5123,0.5123,0.5127,0.5106,0.5105,0.5085,0.5113,0.5113,0.5112,0,0.5304,0.5289,0.5261,0.5245,0.5238,0.5224,0.5207,0.5193,0.5178,0.5173,0.516,0.5156,0.5138,0.5144,0.5119,0.5129,0.5119,0.5113,0.5112,0.5109,0.5116,0.5102,0.5079,0.5076,0.5108,0.5108,0.5108,0,0.5292,0.5265,0.5244,0.5237,0.5217,0.5208,0.5199,0.5185,0.5174,0.5159,0.5152,0.5135,0.5125,0.5112,0.5103,0.5109,0.5079,0.5084,0.5073,0.5074,0.5066,0.5066,0.5041,0.5062,0.5062,0.5062,0.5062,0,0.5268,0.5251,0.5239,0.5226,0.5207,0.5199,0.518,0.5172,0.5159,0.5145,0.5141,0.5127,0.5117,0.5102,0.5095,0.5075,0.5071,0.5066,0.5064,0.5066,0.5066,0.5059,0.5059,0.5061,0.5061,0.5061,0.5061,0,0.525,0.5241,0.5219,0.5203,0.5198,0.5185,0.5171,0.5159,0.5151,0.5133,0.5129,0.5116,0.5099,0.5089,0.5067,0.5062,0.504,0.5039,0.5045,0.5044,0.5034,0.5035,0.5001,0.4996,0.5021,0.5021,0.5021,0,0.5235,0.5222,0.5205,0.5195,0.5187,0.5171,0.5161,0.5153,0.5142,0.5125,0.5115,0.5098,0.5083,0.5056,0.5044,0.5028,0.5026,0.5016,0.5023,0.5026,0.5025,0.5026,0.5024,0.5014,0.5014,0.5013,0.5013,0,0.5209,0.5206,0.5191,0.5175,0.5163,0.515,0.5137,0.513,0.512,0.5108,0.5091,0.508,0.5058,0.5041,0.5024,0.5015,0.5012,0.5011,0.5008,0.5009,0.5013,0.501,0.5041,0.5012,0.5012,0.5012,0.5012,0.5012,0.5191,0.518,0.5166,0.515,0.514,0.5129,0.5117,0.5108,0.5094,0.5076,0.5072,0.5054,0.504,0.5017,0.5008,0.4993,0.4995,0.499,0.4988,0.4987,0.4986,0.5016,0.499,0.499,0.499,0.499,0.499,0,0.5165,0.5157,0.5142,0.5125,0.5113,0.5113,0.5099,0.5088,0.5073,0.506,0.5047,0.5027,0.5011,0.4999,0.4982,0.4973,0.4972,0.4969,0.4969,0.4967,0.4986,0.499,0.497,0.497,0.497,0.497,0.497,0.497,0.515,0.513,0.5125,0.5101,0.5093,0.5075,0.5067,0.5057,0.5047,0.5025,0.5012,0.5005,0.4993,0.4976,0.4961,0.4958,0.4952,0.4949,0.4946,0.4964,0.4966,0.4968,0.4972,0.4948,0.4948,0.4928,0.4928,0.4928]},{"header":{"parameterUnit":"m.s-1","parameterCategory":1,"la1":30.2991,"la2":30.254,"lo1":-89.0895,"lo2":-89.0444,"dy":0.0017,"dx":0.0017,"nx":28,"ny":28,"refTime":"2023-10-31T03:00:00:Z","depth":0,"parameterNumber":3,"parameterNumberName":"V-component_of_WINDS"},"data":[0,0,0,0,0,0,0,0,0,0,0,0,0,0,0,0,0,0,0,0,0,0,0,0,0,0,0,0,0,0,0,0,0,0,0,0,0,0,0,0,0,0,0,0,0,0,0,0,0,0,0,0,0,0,0,0,0,0,-8.1829,-8.183,0,-8.1953,-8.1954,-8.1955,-8.189,-8.1887,-8.1884,-8.188,-8.2,-8.2006,-8.2012,0,0,0,0,0,0,0,0,0,0,0,0,0,-8.153,-8.1536,-8.1829,-8.1831,-8.1832,-8.1952,-8.1954,-8.1956,-8.1891,-8.1887,-8.1883,-8.1879,-8.1998,-8.2005,-8.2012,0,0,0,0,0,0,0,0,0,0,0,0,0,-8.1657,-8.1538,-8.1829,-8.1814,-8.1814,-8.1952,-8.1954,-8.1956,-8.1892,-8.1887,-8.1882,-8.1877,-8.1995,-8.2004,-8.2013,-8.217,0,0,-8.2042,-8.2046,0,0,0,0,0,0,0,0,-8.165,-8.1668,-8.1815,-8.1816,-8.1816,-8.1901,-8.1892,-8.2028,-8.1893,-8.1862,-8.188,-8.1875,-8.197,-8.1981,-8.2015,-8.2176,-8.2181,-8.2043,-8.2049,-8.2053,-8.2055,0,0,0,0,0,0,0,-8.1641,-8.1662,-8.1878,-8.1817,-8.1818,-8.1799,-8.1812,-8.1918,-8.1942,-8.1864,-8.186,-8.1876,-8.197,-8.2006,-8.2017,-8.2183,-8.2043,-8.2051,-8.2057,-8.206,-8.2477,-8.2483,0,0,0,0,0,0,-8.1634,-8.1656,-8.1874,-8.1881,-8.1719,-8.1809,-8.1823,-8.1879,-8.1941,-8.1946,-8.188,-8.1872,-8.1993,-8.2007,-8.2021,-8.2209,-8.2053,-8.2061,-8.2067,-8.2472,-8.2479,-8.2485,0,0,0,0,0,0,-8.1628,-8.1654,-8.1869,-8.1767,-8.1793,-8.1819,-8.1882,-8.1884,-8.192,-8.1953,-8.1956,-8.1914,-8.1989,-8.2008,-8.2134,-8.2212,-8.2065,-8.2074,-8.2466,-8.2474,-8.2482,-8.2586,0,0,0,0,0,0,-8.162,-8.1653,-8.1714,-8.1769,-8.1799,-8.1982,-8.1887,-8.189,-8.1938,-8.1929,-8.1985,-8.199,-8.1987,-8.2121,-8.2144,-8.2223,-8.2081,-8.2459,-8.2469,-8.2479,-8.2575,-8.2596,-8.2614,0,0,0,0,0,-8.1609,-8.1737,-8.1717,-8.1744,-8.1877,-8.1986,-8.2003,-8.2,-8.1944,-8.2005,-8.2026,-8.1988,-8.22,-8.2134,-8.2159,-8.2242,-8.2454,-8.2466,-8.2478,-8.2567,-8.2592,-8.2614,0,0,0,0,0,0,-8.1687,-8.1744,-8.1723,-8.1872,-8.1926,-8.1975,-8.2052,-8.2027,-8.2095,-8.2083,-8.2074,-8.2087,-8.2218,-8.2242,-8.2168,-8.2397,-8.2318,-8.2336,-8.2377,-8.2401,-8.242,-8.2411,-8.2089,0,0,0,0,0,-8.1722,-8.1809,-8.1852,-8.198,-8.2008,-8.2026,-8.2073,-8.2066,-8.212,-8.2141,-8.2171,-8.2222,-8.2301,-8.2352,-8.2426,-8.2579,-8.2589,-8.2648,-8.2668,-8.2683,-8.2699,-8.2781,-8.2808,-8.2525,-8.2525,-8.2525,0,0,-8.1794,-8.1835,-8.189,-8.1997,-8.2037,-8.2125,-8.2045,-8.2141,-8.2206,-8.2155,-8.2276,-8.23,-8.2357,-8.2497,-8.256,-8.2521,-8.278,-8.2699,-8.2712,-8.2718,-8.2797,-8.2823,-8.2847,-8.2533,-8.2532,-8.253,0,0,-8.197,-8.2011,-8.2122,-8.2165,-8.2228,-8.2239,-8.2266,-8.232,-8.2335,-8.2458,-8.2421,-8.2497,-8.2632,-8.2674,-8.2713,-8.2907,-8.2874,-8.2931,-8.3032,-8.3113,-8.3135,-8.3155,-8.3224,-8.3248,-8.2946,-8.2946,-8.2946,0,-8.2051,-8.2185,-8.2182,-8.2282,-8.2329,-8.229,-8.2401,-8.2442,-8.2525,-8.2557,-8.2513,-8.2683,-8.2718,-8.2868,-8.2915,-8.2948,-8.2977,-8.2924,-8.3133,-8.3152,-8.3171,-8.3236,-8.3262,-8.2953,-8.2952,-8.2951,-8.2951,0,-8.2281,-8.2374,-8.2456,-8.2541,-8.2597,-8.2702,-8.2713,-8.277,-8.2758,-8.2773,-8.2898,-8.2939,-8.3021,-8.3056,-8.3044,-8.3204,-8.3178,-8.3134,-8.3054,-8.3204,-8.3265,-8.329,-8.2962,-8.296,-8.2958,-8.2956,0,0,-8.2509,-8.2592,-8.2622,-8.266,-8.2727,-8.2798,-8.29,-8.2983,-8.3032,-8.309,-8.3175,-8.3291,-8.3251,-8.3296,-8.3288,-8.3359,-8.351,-8.3306,-8.3307,-8.3342,-8.3688,-8.372,-8.375,-8.3489,-8.3493,-8.3497,-8.3683,0,-8.269,-8.2873,-8.2873,-8.3041,-8.3126,-8.3091,-8.318,-8.323,-8.3247,-8.332,-8.3338,-8.342,-8.3361,-8.3388,-8.3456,-8.3477,-8.3579,-8.3463,-8.3566,-8.3569,-8.3553,-8.3782,-8.3817,-8.399,-8.3707,-8.3711,-8.3714,0,-8.2925,-8.2995,-8.3172,-8.3228,-8.3264,-8.3344,-8.342,-8.3491,-8.3546,-8.3554,-8.3605,-8.3587,-8.3689,-8.3607,-8.3747,-8.3669,-8.371,-8.3727,-8.3733,-8.3742,-8.365,-8.3796,-8.4045,-8.4071,-8.3751,-8.3748,-8.3746,0,-8.3074,-8.3211,-8.3335,-8.3369,-8.3437,-8.3494,-8.3525,-8.3575,-8.3625,-8.3691,-8.3723,-8.3798,-8.3839,-8.3897,-8.3899,-8.384,-8.4041,-8.3959,-8.4048,-8.4049,-8.4092,-8.4089,-8.435,-8.412,-8.4119,-8.4119,-8.4118,0,-8.3276,-8.3385,-8.3403,-8.3479,-8.3601,-8.3599,-8.3719,-8.3743,-8.3789,-8.3868,-8.3841,-8.3914,-8.3913,-8.3988,-8.399,-8.4106,-8.4124,-8.4132,-8.4131,-8.4134,-8.4133,-8.4161,-8.4149,-8.4126,-8.4124,-8.4123,-8.4122,0,-8.3462,-8.3478,-8.3611,-8.3666,-8.3682,-8.3769,-8.3814,-8.3886,-8.3901,-8.4001,-8.4024,-8.4047,-8.4134,-8.4142,-8.4241,-8.4243,-8.4383,-8.4369,-8.4365,-8.4363,-8.4451,-8.4443,-8.4739,-8.4778,-8.4522,-8.4525,-8.4527,0,-8.3589,-8.3673,-8.3738,-8.379,-8.3825,-8.3909,-8.3961,-8.3962,-8.4016,-8.4086,-8.4149,-8.4234,-8.4301,-8.4441,-8.4465,-8.4541,-8.4528,-8.4627,-8.4539,-8.454,-8.453,-8.4525,-8.4533,-8.4644,-8.4647,-8.4649,-8.4651,0,-8.3814,-8.3819,-8.3895,-8.3976,-8.4039,-8.4101,-8.416,-8.4203,-8.4212,-8.4274,-8.4364,-8.4417,-8.452,-8.4604,-8.4679,-8.4707,-8.468,-8.4679,-8.4703,-8.4707,-8.4702,-8.4706,-8.4411,-8.4671,-8.4669,-8.4668,-8.4667,-8.4666,-8.3975,-8.4048,-8.4106,-8.4192,-8.4237,-8.4292,-8.4363,-8.4388,-8.4464,-8.455,-8.4545,-8.4644,-8.4697,-8.4795,-8.483,-8.4905,-8.4872,-8.4908,-8.4917,-8.4925,-8.4935,-8.469,-8.4919,-8.4918,-8.4918,-8.4917,-8.4917,0,-8.4198,-8.4234,-8.4314,-8.4398,-8.4466,-8.4438,-8.4501,-8.4559,-8.4647,-8.47,-8.4768,-8.4871,-8.4952,-8.4983,-8.5062,-8.5117,-8.5107,-8.5138,-8.5133,-8.514,-8.496,-8.4931,-8.5145,-8.5145,-8.5145,-8.5145,-8.5145,-8.5145,-8.4322,-8.4445,-8.4457,-8.4601,-8.4634,-8.4734,-8.4772,-8.4823,-8.4865,-8.4982,-8.5051,-8.5072,-8.5115,-8.5198,-8.527,-8.5277,-8.5307,-8.5344,-8.5345,-8.5176,-8.5153,-8.5131,-8.5103,-8.535,-8.535,-8.5519,-8.552,-8.5522]}]]